DECAYED
Showing default

HTV-X1, 66174 (Decayed)

Orbit data source: Space-Track

HTV-X1, 66174 was a payload satellite owned by JAXA (JP) in LEO that was launched on Sun, 26 Oct 2025 UTC via a H3-24W launch vehicle from the Tanegashima Space Center (TNSTA). Payload-class satellites include a variety of spacecraft equipped with specific instruments for various scientific and technological missions. These include communications satellites like Starlink; space stations such as the ISS; scientific satellites like the Hubble; Earth observation satellites from companies like Planet Labs, Umbra, and HawkEye 360; GPS; miniature CubeSats for education and research; and military/defense satellites.

Loading next visibility...
Identifier
66174, 2025-241A
Orbit
Decayed
Country
Flag of JPJP / JPN
Related business
Manufacturer
MHITO?
Mission
Decayed Civil Spaceship
Bus & Motor
HTV-X, HBT-5 X 4
Mass
16,000 kg wet, 7,600 kg dry
Launch date (UTC)
2025-10-26 (8 months ago)
Launch vehicle
H3-24W
Launch site
Tanegashima Space Center (TNSTA)
Object type
Payload
Rocket body
Debris
Shape & HBR
Cyl + 2 Pan, 11.0 m
Radar Cross Section
51.510 m², Large (>1 m²)

Expand to show TLE details & history
Last TLE update: 4 weeks ago

TLE from 4 weeks ago
0 HTV-X1
1 66174U 25241A   26146.23519729  .00028651  00000-0  29012-3 0  9994
2 66174  51.6375  51.4083 0007157  89.2746 270.9069 15.65005268 32916
Epoch: 2026-05-26T05:38Z
TLE epoch observation values (Epoch: 2026-05-26T05:38:41.045Z)
Latitude
-0.00006°
Longitude
82.92568°
Altitude
373.897 km
Speed
7.687 km/s
True Right ascension
03h 25m 37s
True Declination
0° 00' 00"
Sunlit
Object was in daylight at epoch
Visualization orbit readout
Latitude
Unknown
Longitude
Unknown
Altitude
Unknown
Speed
Unknown
Apparent Right ascension
Unknown
Apparent Declination
Unknown
Sunlit
N/A
Visualization observer readout
Local Sidereal Time
10:18:54
Azimuth
Unknown
Elevation
Unknown
Doppler factor
Unknown
Orbital elements
Apogee altitude
378.567 km
Perigee altitude
368.903 km
Semi-major axis
6,751.872 km
Eccentricity
0.00072
Inclination
51.6375°
RAAN
51.4083°
Arg. of periapsis
89.2746°
True anomaly
270.8249°
Mean anomaly
270.9069°
Eccentric anomaly
270.8659°
Mean motion
3.91207 °/min
Orbital period
92.02 mins
BSTAR
0.00029012
Loading maneuver chart data...
Computing Atmospheric mass density...
Loading historical data...
Loading historical data...
Loading historical data...
Loading historical data...
Loading historical data...
Loading historical data...
Loading historical data...
Other satellites on launch #241 in the year 2025 (2025-10-26 UTC)

Documentation

Showing up to 5 results
|